Tracking 30417 objects as of 16-May-2025
HD Live streaming from Space Station
objects crossing your sky now

THORAD AGENA D DEB

Track THORAD AGENA D DEB now!
10-day predictions


NORAD ID: 20360
Int'l Code: 1970-025QF
Perigee: 856.5 km
Apogee: 882.1 km
Inclination: 100.4 °
Period: 102.2 minutes
Semi major axis: 7240 km
RCS: 0.0096 m2 (small)
Launch date: April 8, 1970
Source: United States (US)
Launch site: AIR FORCE WESTERN TEST RANGE (AFWTR)

Note: This is SATELLITE DEBRIS
Your satellite tracking list
Your tracking list is empty




NASA's NSSDC Master Catalog

Two Line Element Set (TLE):
1 20360U 70025QF  25135.16411007  .00007614  00000-0  44026-2 0  9997
2 20360 100.4366  22.1897 0017712 215.4150 298.4450 14.09189520776267
Source of the keplerian elements: AFSPC